User: anonymous   Login
Location: Sherrills_Ford_Terrell
(35.6000°N, 80.9830°W)
Time: 13:16:08
(UTC-05:00)
Language:

CZ-4B R/B - Orbit

View from above orbital plane
View from above orbital plane
View from above satellite
View from above satellite

Ground track
Ground track

The orbit data is extracted from the following two-line orbital elements,

1 29093U 06015B   15023.80233661  .00006981  00000-0  22903-3 0  5028
2 29093 097.5028 109.4598 0083135 203.4491 305.8868 15.28590986483225
Epoch (UTC): 23 January 2015 19:15:21
Eccentricity: 0.0083135
inclination: 97.5028°
perigee height: 423 km
apogee height: 537 km
right ascension of ascending node: 109.4598°
argument of perigee: 203.4491°
revolutions per day: 15.28590986
mean anomaly at epoch: 305.8868°
orbit number at epoch: 48322

The dashed part of the orbit path shows where the satellite is in the earth's shadow,  

DLR